Springfield, VT

9:11 AM EDT on October 20, 2017 (GMT -0400)
Hartness State

Weather History for KVSF - December, 2011

Change the Weather History Date:

Wednesday, December 21, 2011

  Actual Average Record
Temperature  
Mean Temperature 28 °F 24 °F  
Max Temperature 36 °F 33 °F 48 °F (2012)
Min Temperature 20 °F 15 °F -9 °F (2004)
Degree Days  
Heating Degree Days 37 41  
Month to date heating degree days 668 792  
Since 1 July heating degree days 1906 2435  
Cooling Degree Days 0 0  
Month to date cooling degree days 0  
Year to date cooling degree days 345  
Moisture  
Dew Point 28 °F    
Average Humidity 77    
Maximum Humidity 92    
Minimum Humidity 61    
Precipitation  
Precipitation 0.26 in 0.11 in 0.96 in (2012)
Month to date precipitation 2.09 2.26  
Year to date precipitation 53.12 42.84  
Sea Level Pressure  
Sea Level Pressure 29.82 in    
Wind  
Wind Speed 0 mph (NE)    
Max Wind Speed 6 mph    
Max Gust Speed 8 mph    
Visibility 4 miles    
Events Rain    
T = Trace of Precipitation, MM = Missing Value Source: NWS Daily Summary

Daily Weather History Graph

Daily Weather History Graph

Search for Another Location

Airport or City:

Trip Planner

Search our weather history database for the weather conditions in past years. The results will help you decide how hot, cold, wet, or windy it might be!

Date:

Astronomy

Dec. 21, 2011 Rise Set
Actual Time 7:19 AM EST 4:17 PM EST
Civil Twilight 6:46 AM EST 4:49 PM EST
Nautical Twilight 6:10 AM EST 5:25 PM EST
Astronomical Twilight 5:35 AM EST 6:00 PM EST
Moon 3:46 AM EST (12/21) 1:35 PM EST (12/21)
Length of Visible Light 10h 03m
Length of Day
8h 57m
Waning Crescent, 12% of the Moon is Illuminated
Dec 21
Waning Crescent
Dec 24
New
Jan 1
First Quarter
Jan 9
Full
Jan 16
Last Quarter

Hourly Weather History & Observations

Time (EST) Temp. Windchill Dew Point Humidity Pressure Visibility Wind Dir Wind Speed Gust Speed Precip Events Conditions
12:54 AM 21.0 °F - 14.0 °F 74% 30.17 in 10.0 mi Calm Calm - N/A   Overcast
1:54 AM 21.9 °F - 15.1 °F 75% 30.17 in 10.0 mi Calm Calm - N/A   Overcast
2:54 AM 23.0 °F - 15.1 °F 72% 30.14 in 10.0 mi Calm Calm - N/A   Overcast
3:54 AM 24.1 °F - 15.1 °F 69% 30.12 in 10.0 mi Calm Calm - N/A   Overcast
4:54 AM 26.1 °F - 17.1 °F 69% 30.11 in 10.0 mi Calm Calm - N/A   Overcast
5:01 AM 26.6 °F - 17.6 °F 69% 30.08 in 10.0 mi Calm Calm - N/A   Overcast
5:54 AM 26.1 °F - 17.1 °F 69% 30.11 in 10.0 mi Calm Calm - N/A   Overcast
7:54 AM 28.0 °F - 18.0 °F 66% 30.06 in 10.0 mi Calm Calm - N/A   Overcast
8:54 AM 28.9 °F - 19.9 °F 69% 30.06 in 10.0 mi Calm Calm - N/A   Overcast
9:54 AM 30.9 °F - 21.0 °F 67% 30.06 in 10.0 mi Calm Calm - N/A   Overcast
10:54 AM 33.1 °F 28.7 °F 21.9 °F 64% 29.99 in 10.0 mi NNW 4.6 mph - 0.00 in   Overcast
11:54 AM 34.0 °F - 25.0 °F 70% 29.96 in 9.0 mi Calm Calm - 0.01 in Rain Light Rain
12:54 PM 34.0 °F - 28.0 °F 79% 29.91 in 6.0 mi Calm Calm - 0.03 in Rain Light Rain
1:51 PM 33.8 °F - 30.2 °F 87% 29.84 in 3.0 mi Calm Calm - 0.05 in Rain Light Rain
1:54 PM 34.0 °F - 30.9 °F 89% 29.87 in 2.5 mi Calm Calm - 0.06 in Rain Light Rain
2:03 PM 33.8 °F - 30.2 °F 87% 29.83 in 4.0 mi Calm Calm - 0.00 in Rain Light Rain
2:42 PM 33.8 °F - 32.0 °F 93% 29.81 in 3.0 mi Calm Calm - 0.00 in Rain Light Rain
2:49 PM 33.8 °F - 30.2 °F 87% 29.82 in 2.0 mi Calm Calm - 0.00 in Rain Light Rain
2:54 PM 34.0 °F - 30.9 °F 89% 29.85 in 1.2 mi Calm Calm - 0.01 in Rain Light Rain
3:36 PM 33.8 °F - 32.0 °F 93% 29.80 in 1.2 mi Calm Calm - 0.12 in Rain Light Rain
3:52 PM 33.8 °F - 30.2 °F 87% 29.78 in 1.5 mi Calm Calm - 0.12 in Rain Light Rain
3:54 PM 34.0 °F - 30.9 °F 89% 29.81 in 1.5 mi Calm Calm - 0.13 in Rain Light Rain
4:17 PM 33.8 °F - 32.0 °F 93% 29.77 in 2.5 mi Calm Calm - 0.00 in Rain Light Rain
4:31 PM 33.8 °F - 32.0 °F 93% 29.76 in 1.5 mi Calm Calm - 0.00 in Rain Light Rain
4:54 PM 34.0 °F - 32.0 °F 92% 29.77 in 1.2 mi Calm Calm - 0.00 in   Overcast
5:24 PM 33.8 °F - 32.0 °F 93% 29.73 in 0.8 mi Calm Calm - 0.00 in Rain Light Rain
5:54 PM 34.0 °F - 32.0 °F 92% 29.74 in 0.8 mi Calm Calm - 0.01 in Rain Light Rain
6:08 PM 33.8 °F - 32.0 °F 93% 29.71 in 1.0 mi Calm Calm - 0.00 in Rain Light Rain
6:54 PM 34.0 °F - 32.0 °F 92% 29.71 in 1.0 mi Calm Calm - 0.00 in   Overcast
7:05 PM 33.8 °F - 32.0 °F 93% 29.69 in 3.0 mi Calm Calm - N/A   Overcast
7:40 PM 33.8 °F - 32.0 °F 93% 29.68 in 2.5 mi Calm Calm - N/A   Overcast
7:54 PM 34.0 °F - 32.0 °F 92% 29.70 in 2.0 mi Calm Calm - 0.00 in Rain Light Rain
8:03 PM 33.8 °F - 32.0 °F 93% 29.67 in 1.5 mi Calm Calm - 0.00 in   Overcast
8:33 PM 33.8 °F - 32.0 °F 93% 29.66 in 2.0 mi Calm Calm - 0.00 in   Overcast
8:54 PM 35.1 °F - 33.1 °F 92% 29.68 in 2.0 mi Calm Calm - 0.00 in   Overcast
9:03 PM 35.6 °F - 33.8 °F 93% 29.66 in 1.5 mi Calm Calm - 0.01 in Rain Light Rain
9:14 PM 35.6 °F - 33.8 °F 93% 29.66 in 2.5 mi Calm Calm - 0.01 in Rain Light Rain
9:42 PM 35.6 °F - 33.8 °F 93% 29.65 in 1.5 mi Calm Calm - 0.01 in   Overcast
9:54 PM 35.1 °F - 32.0 °F 89% 29.67 in 2.0 mi Calm Calm - 0.01 in   Overcast
10:13 PM 35.6 °F - 33.8 °F 93% 29.64 in 1.5 mi Calm Calm - N/A   Overcast
10:42 PM 35.6 °F 32.8 °F 33.8 °F 93% 29.63 in 2.0 mi South 3.5 mph - N/A   Overcast
10:54 PM 35.1 °F - 33.1 °F 92% 29.66 in 3.0 mi Calm Calm - N/A   Overcast
11:12 PM 35.6 °F - 33.8 °F 93% 29.63 in 2.5 mi Calm Calm - N/A   Overcast
11:16 PM 35.6 °F - 33.8 °F 93% 29.62 in 3.0 mi Calm Calm - 0.00 in Rain Light Rain
11:35 PM 35.6 °F - 33.8 °F 93% 29.62 in 2.5 mi Calm Calm - 0.00 in   Overcast
11:54 PM 35.1 °F 32.2 °F 33.1 °F 92% 29.62 in 1.5 mi ENE 3.5 mph - 0.00 in Rain Light Rain